星链-3592 (STARLINK-3592 )

导读

STARLINK-3592是美国SpaceX公司星链(Starlink)星座中的一颗互联网卫星,于2022年2月25日发射。星链项目旨在低地轨道构建全球卫星互联网,为基础设施匮乏地区提供高速低延迟宽带服务。该卫星属于星链早期现役批次,配备氪离子推进系统,可自主完成轨道维持与避碰,依靠相控阵天线提供宽带接入服务,服务全球偏远地区、应急通信等场景,助力星链星座组网实现全球网络覆盖。

基本信息
目录编号:
51801
目录名称:
STARLINK-3592
国际标识:
2022-017AK
轨道中心:
EARTH
卫星名称:
星链-3592
卫星全名:
星链-3592 (STARLINK-3592 )
卫星状态:
在轨 (已飞行1660 天)
发射日期:
2022-02-25 UTC
国别 :
美国 (US)
星等 :
--
该卫星已列入 空间交会检测服务 Space Conjunction Data Service (SCDS) ,当前飞行风险评估等级: 高风险
轨道信息
数据来源 国际轨道数据 AOE轨道数据
星历时间 2026-09-11T15:56:49+0800
23小时前
查看轨道信息
2026-09-07T00:00:00+0800
5天前
查看轨道信息
半长轴 6840.867km 6840.843km
偏心率 0.0001273 0.0001236
轨道倾角 53.159° 53.157°
近地点辐角 85.373° 82.339°
升交点赤经 222.237° 244.043°
平近点角 274.741° 57.833°
近地点 461.859km 461.86km
远地点 463.601km 463.552km
周期 93.848分钟 93.848分钟
每日圈数 15.343912 15.343993
详细信息
固有亮度:
5
最大亮度:
2.5
卫星平台:
Starlink v1.5
覆盖范围:
全球
运营商:
太空探索技术公司
运营商所在国:
美国
制造商(研发单位):
太空探索技术公司
制造商所在国:
美国
使用方式:
暂无
卫星简介
星链(Starlink)计划是由太空探索技术公司(SpaceX)提出的一个巨型低轨卫星互联网星座项目,计划在2019年至2024年间在太空搭建由约1.2万颗卫星组成的“星链”网络,其中1584颗将部署在地球上空550千米处的近地轨道,并从2020年开始工作。该卫星仍在工作。
2D轨道图
3D轨道图
轨道高度分析图
轨道倾角分析图
轨道综合分析图
查看轨道综合分析图
交会数据列表
事件ID 空间交会对象 最接近时刻(TCA) 交会距离 交会风险概率(CRP) 交会风险指数(CRI) 操作
CDM_260913-092805-180106-504022
2026-09-13T
09:28:39+0000
0.372 km
远距离
2.537712E-4 高风险 0.83
CDM_260913-005205-180106-504022
2026-09-13T
00:52:48+0000
1.360 km
极远距离
5.665631E-6 低风险 0.5
CDM_260913-071205-180106-490622
2026-09-13T
07:12:24+0000
1.302 km
极远距离
3.137116E-6 低风险 0.45
CDM_260912-231905-180106-504022
2026-09-12T
23:19:00+0000
1.905 km
极远距离
2.05836E-6 低风险 0.41
CDM_260913-093305-180106-490622
2026-09-13T
09:33:05+0000
1.584 km
极远距离
1.718485E-6 低风险 0.4
CDM_260909-174105-180105-238322
2026-09-09T
17:41:00+0000
2.386 km
极远距离
1.70429E-6 低风险 0.4
CDM_260906-063205-180105-214022
2026-09-06T
06:32:00+0000
2.918 km
极远距离
1.011961E-6 低风险 0.35
CDM_260913-110605-180106-490622
2026-09-13T
11:06:53+0000
2.538 km
极远距离
6.090599E-7 极低风险 0.31
CDM_260913-084605-180106-490622
2026-09-13T
08:46:12+0000
2.577 km
极远距离
5.962297E-7 极低风险 0.31
与全量物体交会距离演化趋势
与全量物体交会风险概率演化趋势